DW0935 Weather Reports


Display with metric or nautical units.
time (UTC)temp
F
wind
direction
speed
MPH
gust
MPH
rain 1hr
in
rain 24hr
in
rain mn
in
humidity
%
barometer
mb
20260507223038 54 262 8.0 16.0 0.00 0.00 0.00 76 1006.1
20260507221538 52 218 8.0 14.0 0.00 0.00 0.00 80 1006.1
20260507220037 51 252 8.0 13.0 0.00 0.00 0.00 82 1006.3
20260507214536 51 241 8.0 17.0 0.00 0.00 0.00 81 1006.5
20260507213040 51 254 10.0 15.0 0.00 0.00 0.00 80 1006.5
20260507211535 52 242 8.0 15.0 0.00 0.00 0.00 82 1006.5
20260507210043 52 220 8.0 14.0 0.00 0.00 0.00 83 1006.4
20260507204534 53 241 6.0 13.0 0.00 0.00 0.00 83 1006.1
20260507203039 53 252 8.0 14.0 0.00 0.00 0.00 82 1006.2
20260507201537 55 225 7.0 17.0 0.00 0.00 0.00 81 1006.1
20260507200033 55 227 10.0 17.0 0.00 0.00 0.00 78 1005.9
20260507194559 56 237 9.0 19.0 0.00 0.00 0.00 79 1006.0
20260507193034 57 239 7.0 15.0 0.00 0.00 0.00 78 1006.2
20260507191533 58 156 6.0 14.0 0.00 0.00 0.00 76 1006.6
20260507190025 58 289 7.0 11.0 0.00 0.00 0.00 77 1006.6
20260507184533 57 200 5.0 13.0 0.00 0.00 0.00 79 1006.9
20260507183035 57 154 1.0 10.0 0.00 0.00 0.00 75 1007.0
20260507181521 57 270 9.0 13.0 0.00 0.00 0.00 73 1007.0
20260507180029 56 313 7.0 12.0 0.00 0.00 0.00 73 1007.4
20260507174518 55 302 6.0 12.0 0.00 0.00 0.00 77 1007.5
20260507173029 55 266 5.0 10.0 0.00 0.00 0.00 76 1007.8
20260507171530 55 305 5.0 13.0 0.00 0.00 0.00 77 1007.7
20260507170013 55 284 8.0 11.0 0.00 0.00 0.00 78 1007.9
20260507164510 54 279 8.0 12.0 0.00 0.00 0.00 81 1008.1
20260507163010 53 323 7.0 12.0 0.00 0.00 0.00 79 1008.0
20260507161507 54 308 7.0 10.0 0.00 0.00 0.00 83 1008.3
20260507160006 53 289 7.0 12.0 0.00 0.00 0.00 85 1008.3
20260507154506 51 326 6.0 11.0 0.00 0.00 0.00 87 1008.5
20260507153003 50 322 6.0 14.0 0.00 0.00 0.00 91 1008.2
20260507151503 51 329 7.0 12.0 0.00 0.00 0.00 92 1008.4
20260507150002 50 306 5.0 15.0 0.00 0.00 0.00 94 1008.8
20260507144603 49 310 9.0 13.0 0.00 0.00 0.00 94 1008.7
20260507143125 49 315 8.0 15.0 0.00 0.00 0.00 94 1008.4
20260507141634 49 325 10.0 14.0 0.00 0.00 0.00 95 1008.4
20260507140055 49 291 9.0 15.0 0.00 0.00 0.00 96 1008.5
20260507134602 49 330 10.0 16.0 0.00 0.00 0.00 96 1008.0
20260507133056 49 343 7.0 13.0 0.00 0.00 0.00 97 1007.9
20260507131553 49 331 8.0 15.0 0.00 0.00 0.00 97 1008.1
20260507130052 49 331 10.0 14.0 0.00 0.00 0.00 97 1008.3
20260507124551 49 311 13.0 18.0 0.00 0.00 0.00 96 1008.1
20260507123049 49 327 11.0 18.0 0.00 0.00 0.00 97 1007.9
20260507121546 49 339 11.0 17.0 0.00 0.00 0.00 98 1007.8
20260507120053 49 345 9.0 15.0 0.00 0.00 0.00 98 1008.1
20260507114545 49 347 11.0 16.0 0.00 0.00 0.00 98 1008.4
20260507113048 49 322 8.0 15.0 0.00 0.00 0.00 98 1007.7
20260507111540 50 322 11.0 21.0 0.00 0.00 0.00 98 1007.7
20260507110038 52 296 11.0 18.0 0.00 0.00 0.00 99 1007.5
20260507104536 52 308 6.0 11.0 0.00 0.00 0.00 99 1006.8
20260507103036 52 272 6.0 10.0 0.00 0.00 0.00 99 1006.7
20260507101535 52 260 5.0 11.0 0.00 0.00 0.00 99 1006.9
20260507100037 52 262 12.0 19.0 0.00 0.00 0.00 99 1007.3
20260507094534 52 252 6.0 11.0 0.00 0.00 0.00 99 1006.4
20260507093033 52 273 7.0 11.0 0.00 0.00 0.00 99 1006.5
20260507091531 51 253 10.0 16.0 0.00 0.00 0.00 99 1006.7
20260507090029 51 252 7.0 15.0 0.00 0.00 0.00 99 1006.5
20260507084528 51 238 8.0 17.0 0.00 0.00 0.00 99 1006.0
20260507083025 51 247 8.0 16.0 0.00 0.00 0.00 99 1006.3
20260507081531 52 259 9.0 16.0 0.00 0.00 0.00 99 1006.5
20260507080022 52 256 11.0 17.0 0.00 0.00 0.00 99 1006.4
20260507074528 52 220 10.0 16.0 0.00 0.00 0.00 99 1006.6
20260507073137 52 220 11.0 19.0 0.00 0.00 0.00 99 1007.1
20260507071517 52 231 14.0 21.0 0.00 0.00 0.00 98 1007.2
20260507070014 52 258 16.0 23.0 0.00 0.00 0.00 98 1007.2
20260507064511 52 266 11.0 22.0 0.00 0.00 0.00 98 1007.2
20260507063008 52 181 12.0 22.0 0.00 0.00 0.00 98 1006.9
20260507061509 52 227 12.0 22.0 0.00 0.00 0.00 98 1006.9
20260507060005 52 247 13.0 24.0 0.00 0.00 0.00 98 1007.1
20260507054501 53 249 15.0 24.0 0.00 0.00 0.00 98 1007.4
20260507053059 53 250 12.0 27.0 0.00 0.00 0.00 98 1007.7
20260507051556 53 235 16.0 26.0 0.00 0.00 0.00 98 1007.7
20260507050057 53 216 17.0 30.0 0.00 0.00 0.00 98 1007.9
20260507044552 53 238 14.0 24.0 0.00 0.00 0.00 98 1008.1
20260507043049 54 252 15.0 23.0 0.00 0.00 0.00 98 1008.2
20260507041547 54 231 15.0 29.0 0.00 0.00 0.00 98 1008.4
20260507040041 54 212 15.0 29.0 0.00 0.00 0.00 98 1008.4
20260507034546 54 214 15.0 29.0 0.00 0.00 0.00 98 1008.6
20260507033057 54 206 14.0 28.0 0.00 0.00 0.00 98 1008.6
20260507031538 54 207 15.0 24.0 0.00 0.00 0.00 98 1008.7
20260507030038 54 212 17.0 31.0 0.00 0.00 0.00 98 1008.7
20260507024541 55 241 17.0 36.0 0.00 0.00 0.00 98 1008.8
20260507023034 54 217 17.0 28.0 0.00 0.00 0.00 98 1009.0
20260507021533 54 231 11.0 28.0 0.00 0.00 0.00 97 1009.0
20260507020033 54 211 20.0 36.0 0.00 0.00 0.00 97 1009.4
20260507014531 54 227 16.0 36.0 0.00 0.00 0.00 97 1009.7
20260507013036 54 203 23.0 33.0 0.00 0.00 0.00 98 1009.4
20260507011533 53 240 18.0 34.0 0.00 0.00 0.00 97 1009.6
20260507010130 54 183 19.0 31.0 0.00 0.00 0.00 97 1009.5
20260507004529 54 197 20.0 30.0 0.00 0.00 0.00 97 1009.6
20260507003027 54 185 17.0 31.0 0.00 0.00 0.00 97 1009.5
20260507001529 53 180 18.0 32.0 0.00 0.00 0.00 96 1009.9
20260507000028 54 179 20.0 31.0 0.00 0.00 0.00 96 1010.2
20260506234542 54 200 19.0 27.0 0.00 0.00 0.00 96 1010.3
20260506233023 54 188 17.0 26.0 0.00 0.00 0.00 95 1010.1
20260506231521 53 203 15.0 29.0 0.00 0.00 0.00 94 1010.3
20260506230020 54 183 18.0 29.0 0.00 0.00 0.00 92 1010.5
20260506224526 54 192 17.0 28.0 0.00 0.00 0.00 92 1010.7